Schneifelwetter: Wetterstation Hallschlag, 537 m . NN
Wetterdaten: Samstag, 18.10.2008
Datum Zeit Temp. A. Temp. 2 Feuchte A. Luftdruck Regen Wind Richtung Richtung Sonnenschein Helligkeit T Regen Taupunkt Windchill
18.10.2008 00:01 -1,1 C -2,4 C 96 % 1020 hPa 0,0 l/m 0,0 km/h (0 Bft) W-SW 240 0 min 0 lux 0,00 min -1,7 C -1,1 C
18.10.2008 00:16 -1,2 C -2,7 C 96 % 1019 hPa 0,0 l/m 0,0 km/h (0 Bft) W-SW 240 0 min 0 lux 0,00 min -1,8 C -1,2 C
18.10.2008 00:31 -1,1 C -2,6 C 97 % 1019 hPa 0,0 l/m 3,2 km/h (1 Bft) W-SW 240 0 min 0 lux 0,00 min -1,5 C -1,1 C
18.10.2008 00:46 -1,4 C -2,6 C 96 % 1019 hPa 0,0 l/m 0,0 km/h (0 Bft) W-SW 240 0 min 0 lux 0,00 min -2,0 C -1,4 C
18.10.2008 01:01 -1,3 C -2,4 C 97 % 1019 hPa 0,0 l/m 0,0 km/h (0 Bft) W-SW 240 0 min 0 lux 0,00 min -1,7 C -1,3 C
18.10.2008 01:16 -1,3 C -2,5 C 97 % 1019 hPa 0,0 l/m 0,0 km/h (0 Bft) W-SW 240 0 min 0 lux 0,00 min -1,7 C -1,3 C
18.10.2008 01:31 -1,3 C -2,5 C 97 % 1019 hPa 0,0 l/m 1,8 km/h (1 Bft) W-SW 240 0 min 0 lux 0,00 min -1,7 C -1,3 C
18.10.2008 01:46 -1,4 C -2,7 C 97 % 1019 hPa 0,0 l/m 0,0 km/h (0 Bft) W-SW 240 0 min 0 lux 0,00 min -1,8 C -1,4 C
18.10.2008 02:01 -1,5 C -3,0 C 97 % 1019 hPa 0,0 l/m 0,0 km/h (0 Bft) W-SW 240 0 min 0 lux 0,00 min -1,9 C -1,5 C
18.10.2008 02:16 -1,7 C -3,1 C 96 % 1019 hPa 0,0 l/m 0,0 km/h (0 Bft) W-SW 240 0 min 0 lux 0,00 min -2,3 C -1,7 C
18.10.2008 02:31 -1,8 C -3,1 C 97 % 1019 hPa 0,0 l/m 0,0 km/h (0 Bft) W-SW 240 0 min 0 lux 0,00 min -2,2 C -1,8 C
18.10.2008 02:46 -2,0 C -3,2 C 97 % 1019 hPa 0,0 l/m 0,0 km/h (0 Bft) W-SW 240 0 min 0 lux 0,00 min -2,4 C -2,0 C
18.10.2008 03:02 -1,9 C -3,1 C 97 % 1019 hPa 0,0 l/m 0,0 km/h (0 Bft) W-SW 240 0 min 0 lux 0,00 min -2,3 C -1,9 C
18.10.2008 03:17 -1,8 C -3,0 C 97 % 1019 hPa 0,0 l/m 0,0 km/h (0 Bft) W-SW 240 0 min 0 lux 0,00 min -2,2 C -1,8 C
18.10.2008 03:32 -1,8 C -2,7 C 97 % 1019 hPa 0,0 l/m 0,4 km/h (0 Bft) W-SW 240 0 min 0 lux 0,00 min -2,2 C -1,8 C
18.10.2008 03:47 -1,7 C -2,5 C 97 % 1019 hPa 0,0 l/m 0,0 km/h (0 Bft) W-SW 240 0 min 0 lux 0,00 min -2,1 C -1,7 C
18.10.2008 04:02 -1,6 C -2,4 C 97 % 1019 hPa 0,0 l/m 0,0 km/h (0 Bft) W-SW 240 0 min 0 lux 0,00 min -2,0 C -1,6 C
18.10.2008 04:17 -1,5 C -2,3 C 97 % 1019 hPa 0,0 l/m 0,0 km/h (0 Bft) W-SW 240 0 min 0 lux 0,00 min -1,9 C -1,5 C
18.10.2008 04:32 -1,4 C -2,2 C 98 % 1019 hPa 0,0 l/m 0,0 km/h (0 Bft) W-SW 240 0 min 0 lux 0,00 min -1,7 C -1,4 C
18.10.2008 04:47 -1,4 C -2,1 C 97 % 1019 hPa 0,0 l/m 0,4 km/h (0 Bft) W-SW 240 0 min 0 lux 0,00 min -1,8 C -1,4 C
18.10.2008 05:02 -1,4 C -2,0 C 98 % 1018 hPa 0,0 l/m 0,0 km/h (0 Bft) W-SW 240 0 min 0 lux 0,00 min -1,7 C -1,4 C
18.10.2008 05:17 -1,4 C -2,0 C 98 % 1018 hPa 0,0 l/m 4,0 km/h (1 Bft) W-SW 240 0 min 0 lux 0,00 min -1,7 C -1,4 C
18.10.2008 05:32 -1,4 C -2,0 C 98 % 1018 hPa 0,0 l/m 0,0 km/h (0 Bft) W-SW 240 0 min 0 lux 0,00 min -1,7 C -1,4 C
18.10.2008 05:47 -1,4 C -2,0 C 98 % 1018 hPa 0,0 l/m 0,0 km/h (0 Bft) W-SW 240 0 min 0 lux 0,00 min -1,7 C -1,4 C
18.10.2008 06:02 -1,4 C -1,9 C 98 % 1018 hPa 0,0 l/m 0,0 km/h (0 Bft) W-SW 240 0 min 0 lux 0,00 min -1,7 C -1,4 C
18.10.2008 06:17 -1,3 C -1,8 C 98 % 1018 hPa 0,0 l/m 0,0 km/h (0 Bft) W-SW 240 0 min 0 lux 0,00 min -1,6 C -1,3 C
18.10.2008 06:32 -1,3 C -1,8 C 98 % 1018 hPa 0,0 l/m 0,0 km/h (0 Bft) W-SW 240 0 min 0 lux 0,00 min -1,6 C -1,3 C
18.10.2008 06:47 -1,2 C -1,6 C 98 % 1018 hPa 0,0 l/m 0,0 km/h (0 Bft) W-SW 240 0 min 0 lux 0,00 min -1,5 C -1,2 C
18.10.2008 07:02 -1,1 C -1,5 C 98 % 1018 hPa 0,0 l/m 0,3 km/h (0 Bft) W-SW 240 0 min 0 lux 0,00 min -1,4 C -1,1 C
18.10.2008 07:17 -1,1 C -1,4 C 98 % 1018 hPa 0,0 l/m 0,0 km/h (0 Bft) W-SW 240 0 min 0 lux 0,00 min -1,4 C -1,1 C
18.10.2008 07:32 -1,0 C -1,3 C 98 % 1018 hPa 0,0 l/m 0,0 km/h (0 Bft) W-SW 240 0 min 0 lux 0,00 min -1,3 C -1,0 C
18.10.2008 07:47 -1,0 C -1,4 C 98 % 1018 hPa 0,0 l/m 4,0 km/h (1 Bft) W-SW 240 0 min 52 lux 0,00 min -1,3 C -1,0 C
18.10.2008 08:02 -1,1 C -1,5 C 98 % 1018 hPa 0,0 l/m 3,6 km/h (1 Bft) W-SW 240 0 min 333 lux 0,00 min -1,4 C -1,1 C
18.10.2008 08:17 -1,2 C -1,7 C 98 % 1018 hPa 0,0 l/m 0,0 km/h (0 Bft) W-SW 240 0 min 1,08 klux 0,00 min -1,5 C -1,2 C
18.10.2008 08:32 -1,2 C -1,7 C 98 % 1018 hPa 0,0 l/m 0,0 km/h (0 Bft) W-SW 240 0 min 2,26 klux 0,00 min -1,5 C -1,2 C
18.10.2008 08:47 -1,2 C -1,7 C 98 % 1018 hPa 0,0 l/m 1,5 km/h (1 Bft) W-SW 240 0 min 3,77 klux 0,00 min -1,5 C -1,2 C
18.10.2008 09:02 -1,2 C -1,7 C 98 % 1018 hPa 0,0 l/m 2,7 km/h (1 Bft) W-SW 240 0 min 6,37 klux 0,00 min -1,5 C -1,2 C
18.10.2008 09:17 -1,1 C -1,6 C 98 % 1018 hPa 0,0 l/m 0,0 km/h (0 Bft) W-SW 240 0 min 12,7 klux 0,00 min -1,4 C -1,1 C
18.10.2008 09:32 -1,0 C -1,2 C 98 % 1019 hPa 0,0 l/m 0,0 km/h (0 Bft) W-SW 240 0 min 14,3 klux 0,00 min -1,3 C -1,0 C
18.10.2008 09:47 -0,4 C -0,6 C 98 % 1019 hPa 0,0 l/m 0,0 km/h (0 Bft) W-SW 240 0 min 20,4 klux 0,00 min -0,7 C -0,4 C
18.10.2008 10:02 0,3 C 0,0 C 98 % 1019 hPa 0,0 l/m 0,0 km/h (0 Bft) W-SW 240 0 min 30,5 klux 0,00 min 0,0 C 0,3 C
18.10.2008 10:17 1,2 C 1,2 C 98 % 1019 hPa 0,0 l/m 0,0 km/h (0 Bft) W-SW 240 0 min 36,1 klux 0,00 min 0,9 C 1,2 C
18.10.2008 10:32 1,9 C 3,3 C 98 % 1019 hPa 0,0 l/m 0,0 km/h (0 Bft) W-SW 240 0 min 37,4 klux 0,00 min 1,6 C 1,9 C
18.10.2008 10:47 3,1 C 6,2 C 99 % 1019 hPa 0,0 l/m 0,0 km/h (0 Bft) W-SW 240 0 min 41,5 klux 0,00 min 3,0 C 3,1 C
18.10.2008 11:02 4,4 C 8,0 C 99 % 1019 hPa 0,0 l/m 0,0 km/h (0 Bft) W-SW 240 0 min 46,4 klux 0,00 min 4,3 C 4,4 C
18.10.2008 11:17 5,7 C 10,2 C 99 % 1019 hPa 0,0 l/m 3,0 km/h (1 Bft) W-SW 240 0 min 51,1 klux 0,00 min 5,6 C 5,7 C
18.10.2008 11:32 6,8 C 11,1 C 99 % 1019 hPa 0,0 l/m 15,1 km/h (3 Bft) SW22.5 230 0 min 54,1 klux 0,00 min 6,7 C 1,2 C
18.10.2008 11:47 7,5 C 12,0 C 97 % 1019 hPa 0,0 l/m 15,8 km/h (3 Bft) W-SW22.5 255 0 min 52,4 klux 0,00 min 7,1 C 1,7 C
18.10.2008 12:02 8,0 C 12,2 C 94 % 1019 hPa 0,0 l/m 30,6 km/h (5 Bft) W-SW22.5 250 0 min 52,6 klux 0,00 min 7,1 C -2,3 C
18.10.2008 12:17 8,2 C 12,7 C 92 % 1019 hPa 0,0 l/m 23,2 km/h (4 Bft) W45 260 0 min 53,0 klux 0,00 min 7,0 C -0,1 C
18.10.2008 12:32 8,4 C 12,7 C 90 % 1019 hPa 0,0 l/m 22,9 km/h (4 Bft) W-SW22.5 255 15 min 57,3 klux 0,00 min 6,9 C 0,3 C
18.10.2008 12:47 8,8 C 13,5 C 88 % 1019 hPa 0,0 l/m 27,1 km/h (4 Bft) W-SW22.5 255 15 min 58,2 klux 0,00 min 6,9 C -0,3 C
18.10.2008 13:02 8,8 C 14,2 C 84 % 1019 hPa 0,0 l/m 22,4 km/h (4 Bft) W-SW45 240 15 min 57,7 klux 0,00 min 6,2 C 1,0 C
18.10.2008 13:16 9,0 C 14,6 C 85 % 1019 hPa 0,0 l/m 22,8 km/h (4 Bft) W-SW22.5 255 14 min 59,0 klux 0,00 min 6,6 C 1,1 C
18.10.2008 13:31 9,3 C 15,4 C 83 % 1019 hPa 0,0 l/m 16,7 km/h (3 Bft) W-SW22.5 255 15 min 61,2 klux 0,00 min 6,6 C 3,6 C
18.10.2008 13:46 9,6 C 15,8 C 80 % 1018 hPa 0,0 l/m 14,5 km/h (3 Bft) S-SW45 210 15 min 62,8 klux 0,00 min 6,3 C 4,9 C
18.10.2008 14:01 9,8 C 17,0 C 79 % 1018 hPa 0,0 l/m 15,9 km/h (3 Bft) SW45 225 15 min 64,6 klux 0,00 min 6,3 C 4,5 C
18.10.2008 14:16 10,2 C 16,6 C 79 % 1018 hPa 0,0 l/m 17,0 km/h (3 Bft) W-SW22.5 255 15 min 74,3 klux 0,00 min 6,7 C 4,6 C
18.10.2008 14:31 10,8 C 16,8 C 75 % 1018 hPa 0,0 l/m 15,9 km/h (3 Bft) W-SW22.5 250 15 min 70,0 klux 0,00 min 6,5 C 5,7 C
18.10.2008 14:46 10,6 C 14,9 C 75 % 1018 hPa 0,0 l/m 22,7 km/h (4 Bft) W-SW22.5 255 0 min 34,2 klux 0,00 min 6,4 C 3,3 C
18.10.2008 15:01 9,9 C 12,5 C 75 % 1018 hPa 0,0 l/m 16,6 km/h (3 Bft) W-SW45 250 0 min 11,9 klux 0,00 min 5,7 C 4,4 C
18.10.2008 15:16 9,2 C 11,1 C 78 % 1018 hPa 0,0 l/m 14,6 km/h (3 Bft) W22.5 265 0 min 9,4 klux 0,00 min 5,6 C 4,3 C
18.10.2008 15:31 9,2 C 10,8 C 80 % 1018 hPa 0,0 l/m 12,1 km/h (2 Bft) W-SW22.5 255 0 min 18,0 klux 0,00 min 5,9 C 5,5 C
18.10.2008 15:46 9,5 C 12,0 C 81 % 1018 hPa 0,0 l/m 13,1 km/h (3 Bft) W-SW22.5 245 0 min 41,6 klux 0,00 min 6,4 C 5,4 C
18.10.2008 16:01 9,4 C 13,2 C 80 % 1018 hPa 0,0 l/m 12,0 km/h (2 Bft) W22.5 260 0 min 41,6 klux 0,00 min 6,1 C 5,8 C
18.10.2008 16:16 9,2 C 12,6 C 80 % 1018 hPa 0,0 l/m 15,8 km/h (3 Bft) W-SW22.5 255 0 min 41,5 klux 0,00 min 5,9 C 3,8 C
18.10.2008 16:31 9,7 C 14,8 C 79 % 1018 hPa 0,0 l/m 14,3 km/h (3 Bft) SW45 235 0 min 42,1 klux 0,00 min 6,2 C 5,1 C
18.10.2008 16:46 9,6 C 12,1 C 78 % 1018 hPa 0,0 l/m 15,6 km/h (3 Bft) W-SW22.5 250 0 min 15,3 klux 0,00 min 6,0 C 4,4 C
18.10.2008 17:01 9,1 C 10,6 C 79 % 1018 hPa 0,0 l/m 8,3 km/h (2 Bft) W-SW22.5 250 0 min 8,52 klux 0,00 min 5,7 C 7,7 C
18.10.2008 17:16 8,8 C 10,5 C 81 % 1018 hPa 0,0 l/m 1,0 km/h (0 Bft) W-SW 250 0 min 21,2 klux 0,00 min 5,7 C 8,8 C
18.10.2008 17:31 8,5 C 9,6 C 80 % 1018 hPa 0,0 l/m 11,3 km/h (2 Bft) W-SW22.5 255 0 min 6,01 klux 0,00 min 5,3 C 5,2 C
18.10.2008 17:46 8,3 C 9,1 C 82 % 1018 hPa 0,0 l/m 5,2 km/h (1 Bft) W 260 0 min 4,50 klux 0,00 min 5,4 C 8,3 C
18.10.2008 18:01 8,2 C 8,8 C 82 % 1018 hPa 0,0 l/m 1,7 km/h (1 Bft) W 260 0 min 9,4 klux 0,00 min 5,3 C 8,2 C
18.10.2008 18:16 7,7 C 8,2 C 83 % 1018 hPa 0,0 l/m 0,0 km/h (0 Bft) W 260 0 min 7,49 klux 0,00 min 5,0 C 7,7 C
18.10.2008 18:31 7,2 C 7,3 C 84 % 1018 hPa 0,0 l/m 1,9 km/h (1 Bft) W 260 0 min 4,37 klux 0,00 min 4,7 C 7,2 C
18.10.2008 18:46 6,5 C 5,9 C 85 % 1018 hPa 0,0 l/m 2,9 km/h (1 Bft) W 260 0 min 1,02 klux 0,00 min 4,2 C 6,5 C
18.10.2008 19:01 5,7 C 4,6 C 85 % 1018 hPa 0,0 l/m 3,7 km/h (1 Bft) W 260 0 min 223 lux 0,00 min 3,4 C 5,7 C
18.10.2008 19:16 5,1 C 3,7 C 87 % 1018 hPa 0,0 l/m 4,9 km/h (1 Bft) W 260 0 min 38 lux 0,00 min 3,1 C 5,1 C
18.10.2008 19:31 4,5 C 2,8 C 87 % 1018 hPa 0,0 l/m 3,8 km/h (1 Bft) W 260 0 min 3 lux 0,00 min 2,5 C 4,5 C
18.10.2008 19:46 3,8 C 2,1 C 88 % 1018 hPa 0,0 l/m 0,0 km/h (0 Bft) W 260 0 min 0 lux 0,00 min 2,0 C 3,8 C
18.10.2008 20:01 3,4 C 1,5 C 89 % 1018 hPa 0,0 l/m 0,0 km/h (0 Bft) W 260 0 min 0 lux 0,00 min 1,8 C 3,4 C
18.10.2008 20:16 2,7 C 1,1 C 90 % 1018 hPa 0,0 l/m 0,0 km/h (0 Bft) W 260 0 min 0 lux 0,00 min 1,2 C 2,7 C
18.10.2008 20:31 2,2 C 0,7 C 90 % 1019 hPa 0,0 l/m 0,0 km/h (0 Bft) W 260 0 min 0 lux 0,00 min 0,7 C 2,2 C
18.10.2008 20:46 1,9 C 0,3 C 91 % 1019 hPa 0,0 l/m 0,0 km/h (0 Bft) W 260 0 min 0 lux 0,00 min 0,6 C 1,9 C
18.10.2008 21:01 1,6 C 0,0 C 92 % 1019 hPa 0,0 l/m 0,0 km/h (0 Bft) W 260 0 min 0 lux 0,00 min 0,4 C 1,6 C
18.10.2008 21:16 1,4 C -0,3 C 93 % 1019 hPa 0,0 l/m 0,0 km/h (0 Bft) W 260 0 min 0 lux 0,00 min 0,4 C 1,4 C
18.10.2008 21:31 1,2 C -0,3 C 93 % 1019 hPa 0,0 l/m 0,0 km/h (0 Bft) W 260 0 min 0 lux 0,00 min 0,2 C 1,2 C
18.10.2008 21:46 1,3 C -0,4 C 94 % 1019 hPa 0,0 l/m 0,0 km/h (0 Bft) W 260 0 min 0 lux 0,00 min 0,4 C 1,3 C
18.10.2008 22:01 1,3 C -0,4 C 94 % 1019 hPa 0,0 l/m 0,0 km/h (0 Bft) W 260 0 min 0 lux 0,00 min 0,4 C 1,3 C
18.10.2008 22:17 1,2 C -0,3 C 94 % 1019 hPa 0,0 l/m 0,0 km/h (0 Bft) W 260 0 min 0 lux 0,00 min 0,3 C 1,2 C
18.10.2008 22:32 1,2 C -0,4 C 95 % 1019 hPa 0,0 l/m 0,0 km/h (0 Bft) W 260 0 min 0 lux 0,00 min 0,5 C 1,2 C
18.10.2008 22:47 1,1 C -0,4 C 95 % 1020 hPa 0,0 l/m 0,0 km/h (0 Bft) W 260 0 min 0 lux 0,00 min 0,4 C 1,1 C
18.10.2008 23:02 1,1 C -0,4 C 95 % 1020 hPa 0,0 l/m 0,1 km/h (0 Bft) W 260 0 min 0 lux 0,00 min 0,4 C 1,1 C
18.10.2008 23:17 1,1 C -0,3 C 96 % 1020 hPa 0,0 l/m 0,9 km/h (0 Bft) W 260 0 min 0 lux 0,00 min 0,5 C 1,1 C
18.10.2008 23:32 1,0 C -0,2 C 96 % 1020 hPa 0,0 l/m 0,0 km/h (0 Bft) W 260 0 min 0 lux 0,00 min 0,4 C 1,0 C
18.10.2008 23:47 1,0 C -0,2 C 96 % 1020 hPa 0,0 l/m 0,0 km/h (0 Bft) W 260 0 min 0 lux 0,00 min 0,4 C 1,0 C
_ Min-Zeit 02:46 02:46 14:31 05:02 - 00:01 - - - - - 02:46 12:02
Minimum _ -2,0 C -3,2 C 75 % 1018 hPa - 0,0 km/h (0 Bft) - - - - - -2,4 C -2,3 C
_ Max-Zeit 14:31 14:01 10:47 00:01 00:01 12:02 - - 12:32 14:16 00:01 12:02 17:16
Maximum _ 10,8 C 17,0 C 99 % 1020 hPa 0,0 l/m 30,6 km/h
W-SW (5 Bft)
- - 15 min 74,3 klux 0,00 min 7,1 C 8,8 C
Durchschnitt _ 2,8 C 3,4 C 92 % 1019 hPa #0,0 l/m 4,9 km/h (1 Bft) W-SW - #2:14 h 14,6 klux #0 min. 1,6 C 1,4 C